Stations météo

réclame
Mon MeteoGroup
Bilbao/Aeropuerto, Espagne (8025): Température de l'air & dewpoint: 05.12.2017 01:00:00 - 11.12.2017 01:00:00 (CET)Bilbao/Aeropuerto, Espagne (8025): Vitesse du vent & gusts: 05.12.2017 01:00:00 - 11.12.2017 01:00:00 (CET)Bilbao/Aeropuerto, Espagne (8025): Direction du vent: 05.12.2017 01:00:00 - 11.12.2017 01:00:00 (CET)Bilbao/Aeropuerto, Espagne (8025): reduced air pressure: 05.12.2017 01:00:00 - 11.12.2017 01:00:00 (CET)Bilbao/Aeropuerto, Espagne (8025): visibility: 05.12.2017 01:00:00 - 11.12.2017 01:00:00 (CET)
Date & Time tt [°C] td [°C] ff [km/h] ff [knt] fx [km/h] fx [knt] dd ppp [hPa] vv [km]
11.12.2017 01:00:00 - - - - - - - - -
11.12.2017 00:00:00 19,5 7,6 35 19 76 41 SW 980,9 -
10.12.2017 23:00:00 19,6 7,7 28 15 - - SW 982,1 -
10.12.2017 22:00:00 19,2 7,6 22 12 - - SW 984,7 30
10.12.2017 21:00:00 17,7 9,5 28 15 - - WSW 987,7 -
10.12.2017 20:00:00 11,3 11,3 18 10 - - ESE 991,5 -
10.12.2017 19:00:00 11,2 11,2 11 6 - - ESE 994,3 6
10.12.2017 18:00:00 11,4 11,2 4 2 - - ESE 997,1 -
10.12.2017 17:00:00 11,9 11,6 13 7 - - WNW 999,1 -
10.12.2017 16:00:00 12,6 11,8 4 2 - - NW 999,6 6
10.12.2017 15:00:00 13,9 12,3 13 7 - - NW 1001,2 -
10.12.2017 14:00:00 18,3 9,7 22 12 - - SW 1001,5 -
10.12.2017 13:00:00 17,9 9,3 37 20 - - SW 1002,8 30
10.12.2017 12:00:00 17,6 9,1 35 19 - - SW 1004,5 -
10.12.2017 11:00:00 17,3 7,9 28 15 - - SW 1005,5 -
10.12.2017 10:00:00 17,3 7,3 28 15 - - SW 1006,2 25
10.12.2017 09:00:00 17,1 7,5 28 15 - - SW 1007,1 -
10.12.2017 08:00:00 16,9 7,4 26 14 - - SW 1008,3 -
10.12.2017 07:00:00 16,2 8,2 15 8 - - SW 1009,1 15
10.12.2017 06:00:00 15,6 8,4 18 10 - - SW 1009,8 -
10.12.2017 05:00:00 13,5 9,9 4 2 - - S 1011,6 -
10.12.2017 04:00:00 12,2 10,4 4 2 - - ESE 1012,5 -
10.12.2017 03:00:00 12,5 10,6 5 3 - - ENE 1013,2 -
10.12.2017 02:00:00 13,4 10,4 9 5 - - SW 1014,1 -
10.12.2017 01:00:00 14,1 9,9 8 4 - - SSW 1014,8 -
10.12.2017 00:00:00 12,3 10,5 5 3 - - ENE 1015,5 -
09.12.2017 23:00:00 13,1 10,3 9 5 - - SSW 1016,3 -
09.12.2017 22:00:00 12,8 10,2 13 7 - - SW 1016,6 10
09.12.2017 21:00:00 12,0 9,4 13 7 - - SW 1017,2 -
09.12.2017 20:00:00 11,5 9,1 8 4 - - S 1017,3 -
09.12.2017 19:00:00 10,3 8,9 4 2 - - ESE 1018,3 8
09.12.2017 18:00:00 9,8 8,4 0 0 - - N 1019,0 -
09.12.2017 17:00:00 10,3 7,4 2 1 - - SSW 1019,3 -
09.12.2017 16:00:00 10,2 7,6 8 4 - - SSE 1020,4 20
09.12.2017 15:00:00 10,6 7,5 8 4 - - ESE 1021,8 -
09.12.2017 14:00:00 10,7 7,7 5 3 - - ESE 1023,3 -
09.12.2017 13:00:00 10,1 8,4 0 0 - - N 1024,8 20
09.12.2017 12:00:00 9,3 8,5 8 4 - - E 1025,9 -
09.12.2017 11:00:00 8,7 8,7 8 4 - - SE 1026,8 -
09.12.2017 10:00:00 7,5 7,5 9 5 - - SE 1027,1 -
09.12.2017 09:00:00 7,3 7,3 0 0 - - N 1027,2 -
09.12.2017 08:00:00 7,3 7,3 4 2 - - E 1027,0 -
09.12.2017 07:00:00 7,3 7,3 0 0 - - N 1027,3 9
09.12.2017 06:00:00 7,4 7,4 4 2 - - E 1027,5 -
09.12.2017 05:00:00 7,5 7,5 2 1 - - SE 1027,3 -
09.12.2017 04:00:00 7,6 7,6 8 4 - - SE 1027,9 -
09.12.2017 03:00:00 8,1 8,1 0 0 - - N 1028,2 -
09.12.2017 02:00:00 8,4 8,4 0 0 - - N 1028,3 -
09.12.2017 01:00:00 8,6 8,6 0 0 - - N 1028,4 -
09.12.2017 00:00:00 8,7 8,7 0 0 - - N 1028,9 -
08.12.2017 23:00:00 9,0 9,0 2 1 - - SW 1028,9 -
08.12.2017 22:00:00 9,1 9,1 0 0 - - N 1028,8 15
08.12.2017 21:00:00 9,1 9,1 2 1 - - W 1028,7 -
08.12.2017 20:00:00 9,0 9,0 0 0 - - N 1028,5 -
08.12.2017 19:00:00 8,9 8,9 4 2 - - WNW 1028,5 10
08.12.2017 18:00:00 9,3 9,2 5 3 - - WNW 1028,4 -
08.12.2017 17:00:00 9,5 9,4 4 2 - - WNW 1028,2 -
08.12.2017 16:00:00 9,6 9,3 5 3 - - W 1028,1 10
08.12.2017 15:00:00 10,0 9,7 5 3 - - WNW 1028,2 -
08.12.2017 14:00:00 10,1 10,1 5 3 - - E 1028,0 -
08.12.2017 13:00:00 10,6 10,6 4 2 - - W 1028,6 2,0
08.12.2017 12:00:00 10,6 10,6 4 2 - - W 1028,7 -
08.12.2017 11:00:00 10,1 10,1 0 0 - - N 1028,8 -
08.12.2017 10:00:00 9,6 9,6 0 0 - - N 1028,2 1,5
08.12.2017 09:00:00 9,4 9,4 2 1 - - E 1027,6 -
08.12.2017 08:00:00 9,5 9,5 4 2 - - ESE 1026,9 -
08.12.2017 07:00:00 9,5 9,5 5 3 - - ENE 1026,4 3,0
08.12.2017 06:00:00 9,4 9,4 5 3 - - E 1026,1 -
08.12.2017 05:00:00 9,5 9,2 4 2 - - ENE 1025,8 -
08.12.2017 04:00:00 9,6 9,2 5 3 - - E 1025,6 -
08.12.2017 03:00:00 9,6 9,3 5 3 - - E 1025,6 -
08.12.2017 02:00:00 9,8 9,0 8 4 - - E 1025,7 -
08.12.2017 01:00:00 10,7 8,2 4 2 - - E 1025,9 -
08.12.2017 00:00:00 12,1 6,4 0 0 - - N 1026,0 -
07.12.2017 23:00:00 12,5 5,9 4 2 - - SW 1026,3 -
07.12.2017 22:00:00 12,5 4,9 9 5 - - SSW 1026,5 15
07.12.2017 21:00:00 12,7 3,1 8 4 - - WSW 1026,2 -
07.12.2017 20:00:00 12,8 2,6 4 2 - - SW 1026,0 -
07.12.2017 19:00:00 12,5 2,1 4 2 - - SSW 1026,3 15
07.12.2017 18:00:00 12,9 1,7 5 3 - - SE 1026,3 -
07.12.2017 17:00:00 13,5 2,5 5 3 - - SSE 1026,6 -
07.12.2017 16:00:00 12,8 4,2 4 2 - - SSW 1026,5 25
07.12.2017 15:00:00 14,1 2,8 4 2 - - S 1026,8 -
07.12.2017 14:00:00 14,4 1,1 5 3 - - S 1027,0 -
07.12.2017 13:00:00 14,6 2,0 2 1 - - SE 1027,4 25
07.12.2017 12:00:00 13,0 0,5 5 3 - - S 1028,5 -
07.12.2017 11:00:00 10,9 2,0 11 6 - - ESE 1029,2 -
07.12.2017 10:00:00 9,7 0,2 9 5 - - ESE 1029,2 20
07.12.2017 09:00:00 7,2 1,5 11 6 - - E 1028,7 -
07.12.2017 08:00:00 7,4 0,4 0 0 - - N 1029,1 -
07.12.2017 07:00:00 6,7 0,7 4 2 - - W 1029,1 15
07.12.2017 06:00:00 7,1 0,6 0 0 - - N 1028,8 -
07.12.2017 05:00:00 6,0 1,5 2 1 - - SW 1029,2 -
07.12.2017 04:00:00 5,1 1,8 4 2 - - SE 1029,5 -
07.12.2017 03:00:00 5,1 1,5 5 3 - - W 1030,0 -
07.12.2017 02:00:00 3,8 1,3 0 0 - - N 1030,1 -
07.12.2017 01:00:00 3,5 1,0 0 0 - - N 1030,9 -
07.12.2017 00:00:00 3,6 1,1 0 0 - - N 1031,1 -
06.12.2017 23:00:00 4,9 1,4 0 0 - - N 1031,3 -
06.12.2017 22:00:00 4,1 1,5 4 2 - - SE 1031,7 15
06.12.2017 21:00:00 5,0 2,0 8 4 - - ESE 1031,6 -
06.12.2017 20:00:00 4,9 2,1 4 2 - - ENE 1031,8 -
06.12.2017 19:00:00 6,1 2,5 4 2 - - SE 1031,6 15
06.12.2017 18:00:00 7,5 3,2 11 6 - - SE 1031,6 -
06.12.2017 17:00:00 11,9 4,4 8 4 - - SE 1031,1 -
06.12.2017 16:00:00 14,5 2,8 4 2 - - SSW 1030,9 25
06.12.2017 15:00:00 14,4 3,0 4 2 - - SE 1031,1 -
06.12.2017 14:00:00 13,9 3,4 5 3 - - SSE 1031,6 -
06.12.2017 13:00:00 11,9 4,2 4 2 - - ESE 1032,4 20
06.12.2017 12:00:00 10,2 4,4 4 2 - - SE 1033,3 -
06.12.2017 11:00:00 6,9 4,0 0 0 - - N 1033,8 -
06.12.2017 10:00:00 3,0 2,6 0 0 - - N 1034,1 20
06.12.2017 09:00:00 1,0 1,0 8 4 - - E 1034,1 -
06.12.2017 08:00:00 0,2 0,2 4 2 - - E 1034,0 -
06.12.2017 07:00:00 0,3 0,3 4 2 - - E 1034,2 15
06.12.2017 06:00:00 0,0 0,0 4 2 - - E 1034,2 -
06.12.2017 05:00:00 0,4 0,4 9 5 - - E 1034,5 -
06.12.2017 04:00:00 0,5 0,5 4 2 - - E 1034,9 -
06.12.2017 03:00:00 0,7 0,7 5 3 - - ESE 1035,0 -
06.12.2017 02:00:00 0,8 0,8 8 4 - - E 1035,2 -
06.12.2017 01:00:00 1,7 1,7 4 2 - - E 1035,5 -
06.12.2017 00:00:00 2,0 2,0 5 3 - - E 1035,8 -
05.12.2017 23:00:00 2,8 2,7 5 3 - - E 1035,8 -
05.12.2017 22:00:00 3,4 3,1 4 2 - - ESE 1036,3 12
05.12.2017 21:00:00 3,9 3,5 4 2 - - ESE 1036,4 -
05.12.2017 20:00:00 4,2 3,2 4 2 - - ESE 1036,4 -
05.12.2017 19:00:00 5,5 3,7 5 3 - - E 1036,1 20
05.12.2017 18:00:00 7,8 3,8 2 1 - - ESE 1036,1 -
05.12.2017 17:00:00 10,2 4,0 8 4 - - ESE 1035,8 -
05.12.2017 16:00:00 11,3 3,6 15 8 - - E 1035,7 25
05.12.2017 15:00:00 11,8 3,7 13 7 - - E 1036,0 -
05.12.2017 14:00:00 12,1 4,8 9 5 - - ESE 1036,5 -
05.12.2017 13:00:00 9,6 6,5 0 0 - - N 1037,2 25
05.12.2017 12:00:00 6,4 6,3 4 2 - - E 1038,0 -
05.12.2017 11:00:00 4,6 4,6 8 4 - - ESE 1038,6 -
05.12.2017 10:00:00 3,0 3,0 11 6 - - SE 1038,5 1,0
05.12.2017 09:00:00 2,8 2,8 9 5 - - SE 1038,5 -
05.12.2017 08:00:00 3,2 3,2 11 6 - - ESE 1038,2 -
05.12.2017 07:00:00 3,6 3,6 9 5 - - SE 1037,9 1,4
05.12.2017 06:00:00 4,1 4,1 9 5 - - SE 1037,8 -
05.12.2017 05:00:00 4,5 4,5 11 6 - - ESE 1038,0 -
05.12.2017 04:00:00 5,4 5,4 5 3 - - SE 1038,2 -
05.12.2017 03:00:00 5,8 5,8 9 5 - - SE 1038,0 -
05.12.2017 02:00:00 6,3 6,3 5 3 - - E 1038,2 -
05.12.2017 01:00:00 6,4 6,4 4 2 - - ESE 1038,4 -

tt = Température de l'air
td = dewpoint
ff = Vitesse du vent
fx = gusts
dd = Direction du vent
ppp = reduced air pressure
vv = visibility

stations d'obs. à proximité